Regional Weather Roundup
Issued by NWS

Home | Current Version | Previous Version | Text Only | Print | Product List | Glossary On
Versions: 1 2 3 4 5 6 7 8 9 10 11 12 13 14 15 16 17 18 19 20 21 22 23 24 25 26 27 28 29 30 31 32 33 34 35 36 37 38 39 40 41 42 43 44 45 46 47 48 49 50
000
ASUS43 KLSX 251507
RWRMO

WEATHER SUMMARY FOR MISSOURI
NATIONAL WEATHER SERVICE SPRINGFIELD MO
1000 AM CDT MON MAY 25 2015

NOTE: "FAIR" INDICATES FEW OR NO CLOUDS BELOW 12,000 FEET WITH NO
       SIGNIFICANT WEATHER AND/OR OBSTRUCTIONS TO VISIBILITY.
       CURRENT SKY AND/OR WEATHER CONDITIONS ARE NOT AVAILABLE FOR
       CHILLICOTHE AND FARMINGTON.

MOZ001>031-035>038-043-044-053-054-251600-
...NORTHERN AND WESTERN MISSOURI...

CITY           SKY/WX    TMP DP  RH WIND       PRES   REMARKS
KANSAS CTY INT MOSUNNY   66  62  87 S15       29.88F
KANSAS C DTWN  MOSUNNY   69  61  75 SE8       29.88S
LEE`S SUMMIT   PTSUNNY   67  61  81 S9        29.91F
ST JOSEPH      MOSUNNY   68  61  78 S12       29.85R
CHILLICOTHE      N/A     69  62  78 S8        29.92F
KIRKSVILLE     CLOUDY    68  63  84 W10       29.96R

$$
MOZ066>068-077>081-088>096-101>105-251600-
...SOUTHWEST MISSOURI...

CITY           SKY/WX    TMP DP  RH WIND       PRES   REMARKS
SPRINGFIELD    MOSUNNY   72  66  81 S10       29.98S
JOPLIN         PTSUNNY   73  67  81 S10       29.95S

$$
MOZ032>034-039>042-045>050-055>058-069>072-251600-
...CENTRAL MISSOURI...

CITY           SKY/WX    TMP DP  RH WIND       PRES   REMARKS
COLUMBIA       PTSUNNY   67  61  81 SW8       29.99F
JEFFERSON CITY PTSUNNY   69  61  75 S8        30.00S
ROLLA          PTSUNNY   71  64  78 SW9       30.01R
SEDALIA        CLOUDY    66  62  87 SW8       30.00R FOG
WHITEMAN AFB   CLOUDY    65  62  89 W3        29.97F
WARRENSBURG    MOSUNNY   64  61  88 E6        29.94F
OSAGE BEACH    CLOUDY    70  63  78 SW7       30.00F

$$
MOZ051-052-059>065-251600-
...EAST CENTRAL MISSOURI...

CITY           SKY/WX    TMP DP  RH WIND       PRES   REMARKS
ST LOUIS INTL  PTSUNNY   75  61  61 W14G22    30.02R
SPIRIT OF STL  PTSUNNY   73  63  70 W13G21    30.01R
ST CHARLES     PTSUNNY   72  62  71 SW12      30.01S

$$
MOZ072>076-082>087-097>100-106>115-251600-
...SOUTH CENTRAL AND SOUTHEAST MISSOURI...

CITY           SKY/WX    TMP DP  RH WIND       PRES   REMARKS
CAPE GIRARDEAU CLOUDY    72  67  84 S12       30.07R
FARMINGTON     CLOUDY    72  66  83 S14       30.08R
POPLAR BLUFF   CLOUDY    72  67  84 S12       30.04S
WEST PLAINS    PTSUNNY   73  66  78 S10       30.04R

$$



USA.gov is the U.S. government's official web portal to all federal, state and local government web resources and services.